TimeEDT,TemperatureF,Dew PointF,Humidity,Sea Level PressureIn,VisibilityMPH,Wind Direction,Wind SpeedMPH,Gust SpeedMPH,PrecipitationIn,Events,Conditions,WindDirDegrees,DateUTC
12:54 AM,66.9,64.9,93,30.02,7.0,ESE,4.6,-,N/A,,Scattered Clouds,110,2013-08-30 04:54:00
1:54 AM,66.0,64.0,93,30.00,6.0,Calm,Calm,-,N/A,,Clear,0,2013-08-30 05:54:00
2:54 AM,64.9,63.0,93,29.99,5.0,Calm,Calm,-,N/A,,Clear,0,2013-08-30 06:54:00
3:42 AM,64.4,62.6,94,30.01,5.0,Calm,Calm,-,N/A,,Scattered Clouds,0,2013-08-30 07:42:00
3:52 AM,64.4,62.6,94,30.01,5.0,Calm,Calm,-,N/A,,Mostly Cloudy,0,2013-08-30 07:52:00
3:54 AM,64.9,63.0,93,29.99,5.0,Calm,Calm,-,N/A,,Mostly Cloudy,0,2013-08-30 07:54:00
4:07 AM,66.2,64.4,94,30.02,1.8,Calm,Calm,-,N/A,,Overcast,0,2013-08-30 08:07:00
4:25 AM,64.4,62.6,94,30.01,0.8,Calm,Calm,-,N/A,,Mist,0,2013-08-30 08:25:00
4:52 AM,66.2,64.4,94,30.01,1.5,Calm,Calm,-,N/A,,Overcast,0,2013-08-30 08:52:00
4:54 AM,66.0,64.0,93,29.99,1.8,Calm,Calm,-,N/A,,Overcast,0,2013-08-30 08:54:00
4:58 AM,66.2,64.4,94,30.01,3.0,Calm,Calm,-,N/A,,Overcast,0,2013-08-30 08:58:00
5:01 AM,66.2,64.4,94,30.01,1.8,Calm,Calm,-,N/A,,Overcast,0,2013-08-30 09:01:00
5:08 AM,66.2,64.4,94,30.01,0.8,Calm,Calm,-,N/A,,Overcast,0,2013-08-30 09:08:00
5:26 AM,66.2,64.4,94,30.00,2.0,Calm,Calm,-,N/A,,Overcast,0,2013-08-30 09:26:00
5:36 AM,66.2,64.4,94,30.01,4.0,Calm,Calm,-,N/A,,Overcast,0,2013-08-30 09:36:00
5:50 AM,66.2,64.4,94,30.02,0.8,North,4.6,-,N/A,,Overcast,350,2013-08-30 09:50:00
5:54 AM,66.0,64.9,96,30.00,0.2,North,3.5,-,N/A,Fog,Fog,10,2013-08-30 09:54:00
6:19 AM,66.2,64.4,94,30.03,0.8,Calm,Calm,-,N/A,,Mist,0,2013-08-30 10:19:00
6:28 AM,66.2,64.4,94,30.03,1.2,Calm,Calm,-,N/A,,Overcast,0,2013-08-30 10:28:00
6:39 AM,66.2,64.4,94,30.02,2.5,Calm,Calm,-,N/A,,Overcast,0,2013-08-30 10:39:00
6:46 AM,66.2,64.4,94,30.02,3.0,Calm,Calm,-,N/A,,Overcast,0,2013-08-30 10:46:00
6:54 AM,66.0,64.9,96,30.00,2.5,Calm,Calm,-,N/A,,Overcast,0,2013-08-30 10:54:00
7:04 AM,66.2,64.4,94,30.02,3.0,Calm,Calm,-,N/A,,Overcast,0,2013-08-30 11:04:00
7:54 AM,68.0,64.9,90,30.00,3.0,Calm,Calm,-,N/A,,Overcast,0,2013-08-30 11:54:00
8:17 AM,68.0,66.2,94,30.03,2.5,WNW,3.5,-,N/A,,Overcast,300,2013-08-30 12:17:00
8:51 AM,68.0,66.2,94,30.03,3.0,WNW,3.5,-,N/A,,Overcast,290,2013-08-30 12:51:00
8:54 AM,69.1,66.0,90,30.01,2.5,WNW,4.6,-,N/A,,Overcast,300,2013-08-30 12:54:00
9:04 AM,69.8,66.2,88,30.03,3.0,Calm,Calm,-,N/A,,Overcast,0,2013-08-30 13:04:00
9:26 AM,69.8,66.2,88,30.03,3.0,SSW,3.5,-,N/A,,Overcast,200,2013-08-30 13:26:00
9:54 AM,71.1,66.0,84,30.00,4.0,SW,5.8,-,N/A,,Haze,230,2013-08-30 13:54:00
10:54 AM,72.0,66.0,81,30.00,5.0,SW,6.9,-,N/A,,Haze,230,2013-08-30 14:54:00
11:54 AM,77.0,66.9,71,29.97,6.0,West,5.8,-,N/A,,Haze,270,2013-08-30 15:54:00
12:03 PM,77.0,66.2,69,29.99,6.0,West,8.1,-,N/A,,Haze,260,2013-08-30 16:03:00
12:21 PM,78.8,66.2,65,29.99,7.0,West,4.6,-,N/A,,Scattered Clouds,270,2013-08-30 16:21:00
12:54 PM,80.1,64.9,60,29.94,8.0,WSW,8.1,-,N/A,,Clear,250,2013-08-30 16:54:00
1:54 PM,82.9,64.0,53,29.92,10.0,WSW,6.9,-,N/A,,Clear,250,2013-08-30 17:54:00
2:54 PM,86.0,60.1,41,29.90,10.0,West,9.2,-,N/A,,Clear,280,2013-08-30 18:54:00
3:54 PM,88.0,55.9,34,29.88,10.0,SW,9.2,19.6,N/A,,Clear,230,2013-08-30 19:54:00
4:54 PM,87.1,55.9,35,29.87,10.0,Variable,6.9,16.1,N/A,,Clear,0,2013-08-30 20:54:00
5:54 PM,86.0,60.1,41,29.86,10.0,WSW,10.4,-,N/A,,Partly Cloudy,240,2013-08-30 21:54:00
6:54 PM,82.9,62.1,49,29.83,10.0,SW,6.9,-,N/A,,Clear,220,2013-08-30 22:54:00
7:54 PM,79.0,66.0,64,29.83,10.0,South,8.1,-,N/A,,Clear,180,2013-08-30 23:54:00
8:54 PM,78.1,66.9,68,29.86,10.0,WSW,5.8,-,N/A,,Clear,250,2013-08-31 00:54:00
9:54 PM,75.9,66.0,71,29.86,10.0,SSW,4.6,-,N/A,,Clear,200,2013-08-31 01:54:00
10:54 PM,75.9,66.0,71,29.86,9.0,SSW,5.8,-,N/A,,Clear,200,2013-08-31 02:54:00
11:54 PM,75.0,66.0,73,29.85,9.0,South,5.8,-,N/A,,Clear,190,2013-08-31 03:54:00